Precipitable_Water
1.80 1.85 1.88 1.93 1.97 1.92 1.85 1.81 1.77 1.72 1.66 1.58 1.49 1.42 1.39 1.36 1.45 1.55 1.60 1.60 1.62 1.74 1.67 1.69 1.62 1.56 1.55 1.52 1.49 1.42 1.40 1.37 1.30 1.24 1.22 1.26 1.33 1.33 1.34 1.39 1.43 1.47 1.43 1.39 1.36 1.33 1.36 1.22 1.18 1.07 0.95 1.02 1.13 1.12 1.06 1.04 1.00 0.97 0.92 0.82 0.78 0.75 0.74 0.75 0.73 0.73 0.74 0.80 0.87 0.90 0.94 0.96 0.99 0.99 0.98 0.98 0.97 0.94 0.93 0.93 0.92 0.92 0.92 0.92 0.92
1.74 1.85 1.91 1.98 1.96 1.95 1.87 1.83 1.82 1.77 1.68 1.59 1.55 1.48 1.44 1.43 1.44 1.55 1.62 1.63 1.63 1.72 1.68 1.69 1.63 1.57 1.55 1.55 1.52 1.46 1.43 1.38 1.31 1.27 1.26 1.30 1.37 1.34 1.31 1.34 1.41 1.52 1.53 1.47 1.41 1.47 1.42 1.30 1.21 1.16 1.12 1.05 1.11 1.14 1.10 1.06 1.01 0.94 0.87 0.78 0.75 0.73 0.69 0.71 0.73 0.74 0.74 0.85 0.89 0.92 0.95 0.97 0.98 0.96 0.94 0.94 0.96 0.96 0.95 0.96 0.96 0.92 0.87 0.89 0.91
1.76 1.84 1.90 1.94 1.90 1.90 1.85 1.83 1.81 1.78 1.69 1.61 1.57 1.55 1.49 1.49 1.48 1.52 1.62 1.66 1.66 1.70 1.72 1.73 1.70 1.60 1.54 1.52 1.52 1.49 1.46 1.41 1.37 1.32 1.30 1.33 1.36 1.33 1.29 1.33 1.42 1.51 1.54 1.52 1.46 1.49 1.43 1.36 1.20 1.17 1.12 1.06 1.08 1.08 1.09 1.08 1.00 0.92 0.85 0.78 0.74 0.71 0.64 0.66 0.72 0.77 0.79 0.86 0.90 0.93 0.94 0.95 0.97 0.97 0.97 0.98 0.97 0.94 0.93 0.91 0.86 0.89 0.91 0.92 0.91
1.67 1.79 1.86 1.92 1.90 1.91 1.88 1.83 1.80 1.78 1.70 1.60 1.56 1.54 1.53 1.53 1.52 1.56 1.65 1.69 1.68 1.72 1.76 1.73 1.69 1.61 1.54 1.50 1.50 1.50 1.47 1.42 1.41 1.39 1.36 1.33 1.36 1.28 1.26 1.31 1.41 1.46 1.52 1.53 1.48 1.47 1.46 1.41 1.24 1.20 1.14 1.10 1.06 1.06 1.07 1.07 0.99 0.90 0.85 0.79 0.72 0.68 0.64 0.64 0.68 0.75 0.78 0.85 0.88 0.92 0.94 0.96 0.99 0.99 0.97 0.95 0.95 0.93 0.90 0.87 0.89 0.90 0.88 0.88 0.88
1.72 1.74 1.82 1.86 1.88 1.86 1.86 1.86 1.81 1.74 1.73 1.60 1.56 1.54 1.52 1.54 1.53 1.55 1.62 1.68 1.71 1.72 1.74 1.73 1.67 1.55 1.50 1.48 1.50 1.49 1.47 1.44 1.42 1.40 1.38 1.38 1.37 1.32 1.22 1.29 1.38 1.40 1.45 1.50 1.47 1.46 1.43 1.35 1.33 1.24 1.16 1.09 1.10 1.08 1.06 1.06 0.98 0.89 0.86 0.82 0.75 0.70 0.65 0.63 0.67 0.70 0.81 0.86 0.91 0.98 0.99 1.00 0.99 1.00 0.99 0.96 0.92 0.87 0.88 0.88 0.89 0.88 0.87 0.87 0.87
1.74 1.75 1.80 1.79 1.86 1.88 1.86 1.85 1.76 1.73 1.70 1.63 1.58 1.54 1.50 1.51 1.55 1.56 1.57 1.63 1.66 1.69 1.76 1.69 1.63 1.57 1.47 1.49 1.50 1.49 1.44 1.45 1.43 1.44 1.41 1.38 1.34 1.27 1.25 1.27 1.33 1.39 1.42 1.43 1.46 1.44 1.39 1.36 1.29 1.24 1.15 1.08 1.07 1.00 1.12 1.07 0.98 0.88 0.86 0.83 0.76 0.72 0.68 0.63 0.63 0.65 0.78 0.86 0.94 1.00 1.00 0.99 0.97 0.96 0.97 0.94 0.90 0.91 0.92 0.91 0.89 0.87 0.82 0.80 0.81
1.68 1.71 1.67 1.75 1.82 1.86 1.84 1.83 1.75 1.72 1.74 1.69 1.62 1.58 1.56 1.51 1.54 1.56 1.56 1.59 1.66 1.69 1.75 1.81 1.74 1.67 1.56 1.46 1.46 1.46 1.45 1.42 1.44 1.39 1.41 1.37 1.31 1.27 1.23 1.21 1.27 1.32 1.36 1.37 1.39 1.40 1.35 1.31 1.22 1.15 1.09 1.06 1.04 1.10 1.17 1.06 0.97 0.89 0.85 0.83 0.78 0.75 0.70 0.66 0.62 0.60 0.76 0.94 0.96 0.99 1.00 0.97 0.99 0.98 0.98 0.95 0.94 0.92 0.91 0.89 0.89 0.89 0.89 0.89 0.89
1.64 1.62 1.68 1.73 1.78 1.78 1.82 1.82 1.76 1.72 1.71 1.73 1.62 1.60 1.56 1.50 1.52 1.55 1.57 1.58 1.61 1.65 1.64 1.69 1.79 1.71 1.67 1.52 1.43 1.40 1.40 1.40 1.39 1.38 1.40 1.36 1.31 1.28 1.22 1.15 1.12 1.23 1.28 1.30 1.30 1.27 1.24 1.24 1.17 1.08 1.06 1.05 1.01 1.23 1.21 1.07 0.99 0.88 0.84 0.82 0.80 0.76 0.70 0.62 0.58 0.64 0.81 0.95 0.94 0.98 1.00 1.00 0.98 0.92 0.93 0.94 0.93 0.93 0.92 0.91 0.89 0.88 0.87 0.86 0.87
1.54 1.56 1.66 1.76 1.74 1.73 1.76 1.81 1.78 1.74 1.70 1.70 1.65 1.58 1.56 1.54 1.53 1.56 1.58 1.58 1.57 1.60 1.61 1.56 1.55 1.70 1.71 1.57 1.47 1.39 1.36 1.37 1.39 1.35 1.34 1.33 1.30 1.26 1.23 1.16 1.06 1.10 1.19 1.20 1.18 1.17 1.18 1.15 1.12 1.09 1.08 1.02 1.04 1.24 1.24 1.11 0.98 0.90 0.84 0.82 0.78 0.73 0.68 0.62 0.60 0.61 0.87 0.95 0.98 0.99 0.99 0.96 0.94 0.94 0.96 0.94 0.91 0.89 0.84 0.84 0.87 0.86 0.87 0.87 0.84
1.49 1.53 1.65 1.69 1.70 1.69 1.69 1.75 1.78 1.76 1.71 1.70 1.65 1.61 1.62 1.56 1.56 1.58 1.59 1.58 1.55 1.52 1.52 1.52 1.51 1.64 1.74 1.57 1.48 1.38 1.34 1.38 1.36 1.35 1.41 1.36 1.28 1.24 1.20 1.16 1.04 0.99 1.07 1.12 1.13 1.13 1.10 1.08 1.06 1.08 1.04 0.98 1.10 1.25 1.24 1.12 0.99 0.91 0.84 0.81 0.78 0.75 0.69 0.60 0.57 0.74 0.90 0.92 0.93 0.97 0.99 0.99 0.97 0.95 0.94 0.93 0.92 0.90 0.92 0.93 0.90 0.88 0.80 0.80 0.84
1.40 1.49 1.63 1.64 1.67 1.68 1.67 1.71 1.79 1.75 1.70 1.70 1.66 1.67 1.59 1.58 1.56 1.57 1.58 1.57 1.57 1.54 1.48 1.48 1.51 1.55 1.61 1.55 1.51 1.42 1.32 1.35 1.35 1.32 1.37 1.33 1.28 1.23 1.17 1.09 1.02 0.96 0.97 1.03 1.07 1.07 1.04 1.02 1.02 1.04 1.02 0.91 1.13 1.26 1.22 1.10 0.96 0.90 0.84 0.82 0.79 0.73 0.67 0.56 0.60 0.72 0.85 0.93 0.94 0.93 0.94 0.97 0.95 0.92 0.87 0.86 0.85 0.86 0.86 0.85 0.85 0.86 0.87 0.87 0.86
1.23 1.40 1.54 1.56 1.58 1.61 1.63 1.63 1.68 1.73 1.74 1.72 1.69 1.68 1.64 1.54 1.51 1.53 1.53 1.53 1.51 1.51 1.50 1.49 1.48 1.49 1.52 1.49 1.49 1.44 1.38 1.34 1.34 1.30 1.28 1.29 1.22 1.15 1.10 1.05 1.00 0.97 0.96 0.98 1.01 1.01 0.98 0.97 1.00 0.99 1.00 0.91 1.16 1.23 1.18 1.07 0.94 0.88 0.84 0.81 0.78 0.72 0.64 0.59 0.71 0.78 0.79 0.91 0.91 0.89 0.94 0.96 0.92 0.82 0.85 0.88 0.85 0.85 0.84 0.82 0.83 0.84 0.85 0.86 0.86
1.15 1.25 1.37 1.43 1.49 1.53 1.55 1.55 1.64 1.72 1.79 1.74 1.73 1.61 1.57 1.55 1.52 1.48 1.47 1.48 1.48 1.47 1.47 1.43 1.41 1.43 1.48 1.48 1.48 1.48 1.44 1.34 1.29 1.29 1.23 1.19 1.13 1.10 1.06 1.01 1.01 1.00 0.96 0.96 0.96 0.96 0.97 1.02 1.02 0.98 0.94 0.98 1.20 1.23 1.14 1.01 0.92 0.87 0.83 0.81 0.78 0.72 0.65 0.56 0.63 0.68 0.84 0.93 0.85 0.91 0.98 0.98 0.89 0.80 0.90 0.85 0.85 0.85 0.83 0.81 0.83 0.83 0.83 0.83 0.84
1.06 1.17 1.18 1.32 1.44 1.50 1.52 1.53 1.58 1.57 1.66 1.75 1.75 1.69 1.66 1.65 1.55 1.50 1.46 1.46 1.49 1.46 1.42 1.39 1.39 1.39 1.42 1.44 1.48 1.48 1.47 1.37 1.26 1.24 1.14 1.11 1.10 1.12 1.07 1.04 1.02 1.00 0.97 0.95 0.95 0.96 0.98 1.10 1.05 0.99 0.93 1.00 1.20 1.19 1.09 0.98 0.91 0.86 0.82 0.80 0.78 0.72 0.62 0.59 0.64 0.70 0.80 0.85 0.92 0.96 0.94 0.93 0.87 0.87 0.88 0.83 0.84 0.85 0.81 0.79 0.81 0.82 0.81 0.81 0.83
0.97 1.11 1.18 1.29 1.35 1.40 1.48 1.48 1.59 1.49 1.57 1.70 1.75 1.72 1.66 1.61 1.60 1.53 1.48 1.48 1.44 1.37 1.38 1.36 1.34 1.33 1.36 1.43 1.45 1.45 1.44 1.37 1.26 1.19 1.14 1.11 1.13 1.12 1.11 1.07 1.03 1.00 0.94 0.94 0.94 0.95 0.97 1.05 1.04 0.96 0.95 0.99 1.11 1.10 1.04 0.96 0.90 0.85 0.80 0.77 0.74 0.69 0.65 0.60 0.55 0.61 0.72 0.78 0.87 0.87 0.92 0.91 0.79 0.87 0.87 0.84 0.85 0.85 0.82 0.82 0.80 0.80 0.81 0.81 0.81
0.88 1.02 1.15 1.23 1.32 1.35 1.37 1.48 1.57 1.53 1.55 1.61 1.64 1.64 1.61 1.55 1.59 1.62 1.51 1.49 1.43 1.33 1.32 1.31 1.29 1.27 1.35 1.38 1.43 1.44 1.40 1.40 1.34 1.27 1.21 1.22 1.16 1.14 1.12 1.08 1.01 0.94 0.95 0.94 0.95 0.95 0.96 1.03 0.95 0.92 0.98 0.95 1.01 1.04 1.00 0.95 0.89 0.84 0.80 0.76 0.73 0.71 0.72 0.77 0.65 0.63 0.68 0.74 0.82 0.94 0.96 0.89 0.79 0.85 0.86 0.84 0.84 0.79 0.82 0.81 0.80 0.79 0.79 0.79 0.79
0.73 0.86 1.01 1.19 1.28 1.37 1.39 1.45 1.53 1.58 1.58 1.61 1.62 1.62 1.58 1.59 1.63 1.64 1.56 1.52 1.44 1.33 1.29 1.26 1.24 1.25 1.27 1.31 1.38 1.39 1.40 1.44 1.40 1.33 1.33 1.33 1.25 1.15 1.10 1.05 0.98 0.95 0.93 0.93 0.91 0.91 0.94 0.97 0.93 0.88 0.97 0.96 0.91 0.94 0.97 0.94 0.89 0.85 0.81 0.78 0.74 0.70 0.67 0.76 0.70 0.67 0.71 0.81 0.84 0.88 0.93 0.85 0.83 0.87 0.85 0.84 0.81 0.78 0.81 0.81 0.80 0.79 0.79 0.79 0.78
0.60 0.65 0.74 0.97 1.14 1.32 1.45 1.51 1.52 1.55 1.59 1.63 1.62 1.60 1.55 1.54 1.56 1.58 1.58 1.56 1.48 1.36 1.26 1.22 1.23 1.24 1.25 1.32 1.33 1.33 1.39 1.47 1.44 1.41 1.42 1.45 1.33 1.22 1.14 1.06 1.02 0.96 0.94 0.93 0.89 0.89 0.87 0.92 0.87 0.84 0.87 0.93 0.89 0.83 0.88 0.92 0.89 0.86 0.83 0.80 0.75 0.72 0.65 0.69 0.72 0.70 0.76 0.70 0.86 0.89 0.94 0.81 0.76 0.82 0.85 0.84 0.82 0.80 0.80 0.79 0.78 0.78 0.76 0.76 0.77
0.47 0.52 0.59 0.71 0.88 1.06 1.29 1.39 1.47 1.54 1.56 1.56 1.56 1.54 1.48 1.49 1.52 1.57 1.54 1.55 1.54 1.40 1.27 1.20 1.25 1.27 1.28 1.29 1.30 1.33 1.43 1.49 1.42 1.39 1.43 1.45 1.48 1.34 1.22 1.12 1.07 1.02 0.97 0.94 0.88 0.92 0.93 0.93 0.87 0.85 0.84 0.85 0.82 0.79 0.84 0.85 0.83 0.86 0.83 0.80 0.73 0.71 0.62 0.65 0.71 0.70 0.64 0.63 0.86 0.84 0.91 0.70 0.72 0.78 0.81 0.83 0.81 0.81 0.79 0.77 0.77 0.76 0.76 0.75 0.76
0.41 0.44 0.49 0.56 0.66 0.84 0.95 1.18 1.33 1.38 1.44 1.48 1.53 1.51 1.50 1.51 1.52 1.54 1.54 1.55 1.57 1.43 1.29 1.21 1.26 1.32 1.29 1.28 1.33 1.40 1.41 1.50 1.48 1.42 1.45 1.47 1.46 1.43 1.32 1.26 1.18 1.11 1.04 0.95 0.93 0.94 0.96 0.89 0.86 0.83 0.82 0.79 0.78 0.79 0.86 0.89 0.81 0.79 0.81 0.78 0.72 0.71 0.63 0.78 0.75 0.74 0.66 0.75 0.71 0.86 0.77 0.64 0.71 0.77 0.81 0.82 0.82 0.82 0.79 0.76 0.74 0.75 0.76 0.75 0.72
0.41 0.41 0.43 0.47 0.52 0.61 0.77 0.96 1.15 1.31 1.33 1.38 1.42 1.47 1.49 1.52 1.54 1.53 1.54 1.57 1.58 1.49 1.35 1.25 1.31 1.33 1.37 1.34 1.34 1.49 1.56 1.58 1.46 1.56 1.49 1.49 1.49 1.39 1.45 1.35 1.30 1.20 1.13 1.03 0.98 1.00 1.01 0.91 0.84 0.83 0.78 0.79 0.86 0.83 0.83 0.87 0.86 0.81 0.77 0.77 0.73 0.68 0.78 0.80 0.63 0.69 0.77 0.73 0.64 0.82 0.58 0.62 0.73 0.77 0.80 0.81 0.82 0.81 0.78 0.75 0.73 0.76 0.77 0.74 0.74
0.39 0.42 0.42 0.45 0.48 0.51 0.60 0.73 0.90 1.09 1.30 1.33 1.37 1.44 1.48 1.54 1.59 1.57 1.57 1.55 1.58 1.59 1.39 1.35 1.41 1.55 1.36 1.44 1.46 1.51 1.60 1.65 1.58 1.58 1.50 1.54 1.54 1.45 1.47 1.42 1.36 1.29 1.18 1.07 1.02 1.01 1.03 0.99 0.91 0.82 0.82 0.84 0.86 0.85 0.85 0.87 0.88 0.84 0.80 0.77 0.73 0.81 0.82 0.74 0.68 0.68 0.69 0.73 0.75 0.76 0.56 0.63 0.69 0.77 0.79 0.77 0.78 0.79 0.78 0.75 0.75 0.76 0.76 0.74 0.73
0.37 0.41 0.41 0.42 0.45 0.49 0.53 0.60 0.70 0.87 1.06 1.28 1.33 1.44 1.48 1.56 1.60 1.63 1.58 1.59 1.61 1.59 1.56 1.49 1.55 1.53 1.54 1.51 1.47 1.54 1.55 1.63 1.62 1.57 1.62 1.61 1.62 1.52 1.49 1.42 1.39 1.33 1.23 1.12 1.05 1.02 1.04 1.05 0.99 0.90 0.85 0.86 0.86 0.89 0.90 0.94 0.90 0.88 0.83 0.79 0.83 0.86 0.84 0.77 0.69 0.73 0.63 0.77 0.82 0.68 0.63 0.68 0.72 0.77 0.78 0.76 0.74 0.73 0.77 0.77 0.75 0.76 0.73 0.71 0.72
0.36 0.37 0.41 0.42 0.44 0.45 0.49 0.53 0.61 0.73 0.82 1.09 1.30 1.38 1.49 1.54 1.58 1.62 1.60 1.60 1.61 1.55 1.61 1.57 1.61 1.61 1.52 1.47 1.46 1.47 1.47 1.61 1.60 1.57 1.62 1.63 1.65 1.57 1.48 1.41 1.41 1.36 1.29 1.17 1.10 1.06 1.05 1.05 1.01 0.95 0.90 0.86 0.83 0.86 0.88 0.93 0.97 0.88 0.87 0.83 0.88 0.86 0.80 0.73 0.72 0.73 0.76 0.68 0.81 0.58 0.63 0.68 0.75 0.76 0.76 0.76 0.73 0.72 0.75 0.75 0.75 0.73 0.72 0.66 0.72
0.34 0.39 0.41 0.40 0.41 0.43 0.46 0.51 0.57 0.63 0.72 0.80 1.09 1.26 1.41 1.48 1.53 1.58 1.61 1.59 1.57 1.56 1.57 1.61 1.67 1.68 1.58 1.51 1.52 1.46 1.40 1.56 1.55 1.59 1.61 1.61 1.62 1.63 1.59 1.52 1.42 1.34 1.22 1.18 1.12 1.09 1.04 1.02 0.98 0.94 0.89 0.83 0.82 0.81 0.89 0.92 0.98 0.90 0.90 0.88 0.89 0.89 0.82 0.77 0.79 0.81 0.77 0.74 0.79 0.66 0.62 0.67 0.74 0.73 0.74 0.74 0.72 0.70 0.71 0.70 0.72 0.72 0.70 0.63 0.71
0.39 0.37 0.36 0.41 0.40 0.42 0.44 0.48 0.54 0.58 0.64 0.73 0.79 1.09 1.27 1.40 1.48 1.57 1.58 1.56 1.55 1.54 1.56 1.61 1.64 1.68 1.69 1.64 1.54 1.51 1.40 1.53 1.51 1.49 1.54 1.55 1.61 1.64 1.64 1.47 1.40 1.34 1.20 1.21 1.15 1.14 1.07 1.06 0.97 0.92 0.91 0.86 0.83 0.83 0.84 0.91 0.95 0.93 0.91 0.87 0.88 0.85 0.80 0.80 0.79 0.81 0.83 0.80 0.77 0.69 0.64 0.66 0.72 0.71 0.68 0.72 0.71 0.69 0.69 0.69 0.70 0.70 0.68 0.60 0.56
0.39 0.38 0.41 0.42 0.42 0.41 0.43 0.45 0.48 0.55 0.60 0.70 0.75 0.87 1.17 1.33 1.43 1.50 1.51 1.50 1.50 1.49 1.52 1.57 1.64 1.67 1.63 1.66 1.64 1.58 1.51 1.52 1.52 1.47 1.52 1.51 1.49 1.58 1.55 1.49 1.40 1.36 1.22 1.27 1.21 1.19 1.12 1.12 1.05 0.98 0.95 0.88 0.85 0.83 0.82 0.86 0.92 0.94 0.92 0.89 0.86 0.84 0.80 0.83 0.83 0.77 0.84 0.80 0.81 0.69 0.66 0.66 0.72 0.68 0.71 0.69 0.69 0.65 0.69 0.67 0.67 0.70 0.65 0.59 0.62
0.41 0.42 0.43 0.44 0.43 0.41 0.43 0.44 0.45 0.49 0.55 0.61 0.66 0.71 0.87 1.16 1.34 1.46 1.48 1.49 1.50 1.47 1.49 1.54 1.60 1.61 1.61 1.63 1.67 1.67 1.61 1.54 1.48 1.42 1.49 1.50 1.47 1.58 1.57 1.50 1.48 1.38 1.30 1.28 1.24 1.24 1.19 1.15 1.12 1.06 0.97 0.89 0.84 0.83 0.80 0.80 0.86 0.91 0.94 0.90 0.86 0.85 0.82 0.82 0.83 0.83 0.84 0.80 0.82 0.75 0.71 0.71 0.69 0.62 0.73 0.70 0.68 0.65 0.69 0.67 0.69 0.66 0.61 0.61 0.63
0.43 0.43 0.44 0.43 0.42 0.43 0.44 0.44 0.45 0.45 0.49 0.55 0.58 0.64 0.69 0.84 1.11 1.33 1.41 1.50 1.53 1.54 1.56 1.54 1.53 1.57 1.57 1.59 1.63 1.64 1.64 1.63 1.55 1.47 1.49 1.46 1.44 1.53 1.56 1.54 1.46 1.46 1.39 1.26 1.28 1.22 1.18 1.15 1.12 1.09 1.00 0.90 0.85 0.82 0.81 0.77 0.80 0.86 0.87 0.89 0.87 0.85 0.84 0.83 0.86 0.86 0.83 0.83 0.82 0.82 0.72 0.71 0.71 0.67 0.73 0.71 0.69 0.62 0.70 0.70 0.68 0.65 0.62 0.60 0.64
0.45 0.46 0.45 0.44 0.45 0.45 0.44 0.42 0.45 0.46 0.47 0.50 0.52 0.56 0.61 0.64 0.80 1.03 1.24 1.40 1.50 1.54 1.55 1.55 1.57 1.57 1.54 1.53 1.58 1.58 1.59 1.62 1.62 1.59 1.52 1.57 1.42 1.46 1.52 1.49 1.45 1.47 1.43 1.30 1.24 1.20 1.15 1.12 1.12 1.07 0.98 0.91 0.84 0.83 0.80 0.76 0.74 0.79 0.84 0.84 0.85 0.86 0.86 0.84 0.83 0.82 0.82 0.85 0.85 0.90 0.79 0.71 0.76 0.69 0.65 0.74 0.69 0.65 0.70 0.70 0.69 0.65 0.62 0.61 0.63
0.50 0.49 0.48 0.46 0.47 0.45 0.43 0.44 0.44 0.46 0.48 0.48 0.51 0.51 0.54 0.55 0.61 0.78 0.96 1.10 1.24 1.36 1.47 1.53 1.54 1.54 1.54 1.52 1.55 1.58 1.56 1.54 1.59 1.57 1.53 1.54 1.48 1.43 1.42 1.47 1.47 1.46 1.45 1.38 1.28 1.18 1.13 1.06 1.03 1.02 0.97 0.91 0.86 0.83 0.78 0.75 0.70 0.71 0.78 0.80 0.84 0.87 0.87 0.87 0.86 0.83 0.82 0.81 0.83 0.85 0.82 0.74 0.74 0.71 0.63 0.72 0.73 0.62 0.69 0.72 0.69 0.66 0.64 0.62 0.59
0.51 0.49 0.50 0.48 0.48 0.46 0.45 0.46 0.46 0.46 0.46 0.46 0.48 0.49 0.48 0.49 0.52 0.58 0.71 0.88 1.04 1.12 1.21 1.28 1.39 1.52 1.55 1.53 1.53 1.55 1.57 1.57 1.63 1.56 1.50 1.55 1.53 1.51 1.46 1.45 1.47 1.48 1.45 1.38 1.36 1.29 1.17 1.11 1.06 1.03 1.01 0.95 0.89 0.84 0.79 0.75 0.70 0.67 0.74 0.77 0.82 0.84 0.86 0.87 0.86 0.86 0.83 0.82 0.83 0.81 0.83 0.80 0.75 0.73 0.67 0.66 0.71 0.69 0.67 0.71 0.69 0.69 0.64 0.62 0.60
0.52 0.49 0.46 0.49 0.49 0.49 0.48 0.48 0.49 0.47 0.45 0.42 0.44 0.46 0.48 0.48 0.49 0.50 0.55 0.64 0.81 0.90 0.96 1.09 1.18 1.28 1.49 1.52 1.52 1.54 1.56 1.54 1.57 1.56 1.54 1.48 1.51 1.60 1.56 1.49 1.49 1.50 1.49 1.42 1.37 1.35 1.26 1.17 1.09 1.04 0.98 0.93 0.89 0.83 0.81 0.76 0.70 0.65 0.69 0.75 0.79 0.82 0.85 0.88 0.87 0.86 0.84 0.84 0.83 0.81 0.81 0.81 0.81 0.76 0.69 0.65 0.67 0.69 0.71 0.70 0.69 0.71 0.69 0.64 0.59
0.50 0.50 0.46 0.47 0.51 0.53 0.50 0.49 0.49 0.46 0.44 0.44 0.43 0.42 0.41 0.44 0.46 0.48 0.51 0.57 0.66 0.73 0.82 0.86 0.94 1.08 1.21 1.41 1.50 1.51 1.49 1.51 1.50 1.54 1.60 1.50 1.49 1.48 1.54 1.51 1.52 1.55 1.55 1.49 1.37 1.35 1.29 1.22 1.12 1.01 0.91 0.87 0.85 0.82 0.79 0.72 0.68 0.65 0.65 0.71 0.79 0.81 0.84 0.88 0.89 0.87 0.87 0.83 0.82 0.81 0.80 0.81 0.80 0.82 0.77 0.68 0.64 0.65 0.72 0.74 0.74 0.72 0.69 0.68 0.64
0.53 0.49 0.49 0.47 0.48 0.48 0.50 0.49 0.49 0.47 0.46 0.44 0.43 0.43 0.43 0.41 0.42 0.41 0.45 0.47 0.55 0.62 0.68 0.74 0.79 0.90 1.00 1.18 1.32 1.43 1.50 1.50 1.49 1.47 1.50 1.51 1.51 1.53 1.55 1.54 1.56 1.60 1.60 1.55 1.44 1.40 1.34 1.22 1.14 1.04 1.02 0.95 0.88 0.84 0.80 0.74 0.67 0.62 0.63 0.67 0.74 0.80 0.81 0.86 0.88 0.88 0.86 0.84 0.85 0.83 0.81 0.80 0.80 0.79 0.78 0.75 0.68 0.59 0.70 0.72 0.74 0.74 0.70 0.68 0.69
0.55 0.53 0.52 0.48 0.46 0.48 0.50 0.50 0.50 0.47 0.45 0.44 0.43 0.43 0.43 0.44 0.45 0.44 0.45 0.43 0.48 0.55 0.59 0.62 0.67 0.73 0.87 0.94 1.09 1.24 1.33 1.47 1.51 1.49 1.43 1.44 1.48 1.52 1.51 1.51 1.55 1.58 1.61 1.59 1.52 1.46 1.42 1.34 1.22 1.12 1.06 1.02 0.93 0.84 0.83 0.76 0.72 0.64 0.62 0.67 0.72 0.78 0.81 0.82 0.86 0.87 0.86 0.85 0.81 0.83 0.83 0.80 0.79 0.78 0.78 0.79 0.77 0.67 0.61 0.71 0.69 0.72 0.72 0.71 0.70
0.56 0.57 0.52 0.48 0.47 0.46 0.48 0.49 0.48 0.47 0.47 0.46 0.46 0.44 0.42 0.40 0.39 0.42 0.43 0.45 0.46 0.49 0.54 0.57 0.61 0.62 0.66 0.78 0.92 1.04 1.17 1.30 1.45 1.54 1.51 1.45 1.43 1.48 1.54 1.52 1.52 1.54 1.59 1.59 1.56 1.53 1.53 1.47 1.38 1.26 1.17 1.12 1.04 0.89 0.83 0.75 0.73 0.70 0.63 0.68 0.70 0.75 0.76 0.82 0.84 0.85 0.85 0.82 0.81 0.80 0.80 0.78 0.78 0.79 0.79 0.76 0.77 0.77 0.70 0.67 0.65 0.67 0.69 0.70 0.68
0.60 0.59 0.58 0.54 0.50 0.49 0.50 0.50 0.49 0.48 0.47 0.46 0.46 0.46 0.44 0.45 0.43 0.40 0.39 0.43 0.46 0.47 0.49 0.52 0.56 0.59 0.61 0.62 0.68 0.81 0.97 1.10 1.16 1.34 1.48 1.51 1.49 1.48 1.52 1.55 1.53 1.53 1.52 1.54 1.57 1.56 1.53 1.50 1.43 1.38 1.30 1.25 1.15 0.99 0.86 0.76 0.72 0.71 0.68 0.71 0.69 0.74 0.75 0.79 0.83 0.86 0.82 0.80 0.79 0.75 0.75 0.76 0.75 0.75 0.75 0.73 0.75 0.75 0.76 0.73 0.68 0.66 0.66 0.67 0.67
0.59 0.59 0.59 0.59 0.58 0.51 0.51 0.50 0.52 0.51 0.50 0.48 0.47 0.49 0.50 0.50 0.51 0.48 0.46 0.43 0.46 0.49 0.50 0.51 0.55 0.56 0.60 0.60 0.59 0.65 0.73 0.85 1.01 1.14 1.28 1.43 1.48 1.46 1.47 1.51 1.56 1.58 1.52 1.46 1.49 1.53 1.53 1.50 1.44 1.41 1.41 1.36 1.31 1.19 0.99 0.83 0.71 0.68 0.72 0.77 0.72 0.72 0.78 0.83 0.84 0.82 0.80 0.78 0.75 0.74 0.74 0.73 0.72 0.72 0.73 0.74 0.73 0.75 0.71 0.78 0.74 0.67 0.67 0.64 0.64
0.60 0.60 0.59 0.60 0.59 0.57 0.57 0.55 0.54 0.52 0.53 0.52 0.51 0.46 0.41 0.38 0.37 0.41 0.43 0.45 0.45 0.44 0.50 0.52 0.54 0.57 0.58 0.57 0.58 0.59 0.63 0.70 0.77 0.90 1.03 1.22 1.42 1.49 1.45 1.46 1.50 1.54 1.54 1.50 1.46 1.46 1.49 1.49 1.48 1.44 1.40 1.38 1.41 1.32 1.13 0.94 0.78 0.71 0.74 0.79 0.78 0.75 0.77 0.82 0.82 0.81 0.80 0.75 0.73 0.72 0.66 0.67 0.69 0.68 0.69 0.69 0.71 0.73 0.74 0.72 0.76 0.70 0.69 0.70 0.67
0.61 0.59 0.58 0.60 0.60 0.60 0.59 0.57 0.57 0.55 0.55 0.53 0.47 0.42 0.37 0.37 0.39 0.37 0.35 0.40 0.44 0.45 0.50 0.53 0.54 0.57 0.56 0.59 0.59 0.59 0.61 0.63 0.69 0.76 0.80 0.91 1.09 1.30 1.41 1.40 1.41 1.42 1.45 1.48 1.51 1.52 1.54 1.52 1.52 1.51 1.42 1.36 1.36 1.37 1.23 1.07 0.85 0.75 0.78 0.76 0.78 0.79 0.81 0.82 0.81 0.82 0.77 0.75 0.75 0.65 0.65 0.65 0.67 0.65 0.68 0.68 0.66 0.70 0.72 0.71 0.70 0.72 0.72 0.75 0.73
0.58 0.58 0.56 0.60 0.61 0.62 0.60 0.61 0.59 0.56 0.53 0.51 0.51 0.48 0.42 0.37 0.37 0.36 0.38 0.37 0.37 0.41 0.43 0.50 0.52 0.56 0.58 0.59 0.61 0.62 0.61 0.61 0.65 0.69 0.73 0.78 0.86 0.97 1.13 1.27 1.35 1.35 1.41 1.46 1.50 1.56 1.57 1.53 1.51 1.46 1.48 1.42 1.35 1.38 1.31 1.16 0.89 0.76 0.71 0.67 0.71 0.77 0.81 0.81 0.79 0.78 0.74 0.74 0.72 0.64 0.67 0.66 0.63 0.65 0.68 0.69 0.64 0.64 0.67 0.70 0.69 0.69 0.71 0.73 0.75
0.61 0.59 0.59 0.61 0.61 0.59 0.62 0.61 0.59 0.56 0.55 0.53 0.55 0.48 0.47 0.44 0.41 0.40 0.38 0.38 0.45 0.42 0.46 0.49 0.53 0.54 0.59 0.59 0.61 0.62 0.61 0.61 0.63 0.65 0.67 0.71 0.75 0.86 0.96 1.09 1.19 1.35 1.41 1.40 1.42 1.47 1.57 1.64 1.66 1.53 1.43 1.46 1.42 1.44 1.36 1.25 0.98 0.89 0.84 0.73 0.63 0.61 0.71 0.74 0.78 0.74 0.70 0.72 0.72 0.68 0.68 0.64 0.63 0.65 0.65 0.66 0.64 0.63 0.64 0.67 0.68 0.66 0.68 0.70 0.71
0.61 0.61 0.60 0.59 0.60 0.59 0.63 0.61 0.58 0.56 0.56 0.53 0.49 0.51 0.47 0.49 0.50 0.47 0.46 0.40 0.36 0.44 0.49 0.54 0.53 0.53 0.54 0.57 0.61 0.61 0.60 0.60 0.62 0.62 0.63 0.66 0.70 0.75 0.87 0.95 1.01 1.12 1.23 1.32 1.47 1.43 1.48 1.55 1.66 1.59 1.50 1.36 1.38 1.37 1.39 1.31 1.19 1.01 0.78 0.69 0.68 0.62 0.53 0.57 0.62 0.67 0.71 0.68 0.69 0.70 0.71 0.67 0.67 0.65 0.59 0.62 0.62 0.65 0.67 0.66 0.63 0.66 0.65 0.66 0.68
0.56 0.58 0.59 0.58 0.59 0.61 0.64 0.61 0.59 0.57 0.55 0.51 0.52 0.52 0.54 0.56 0.56 0.57 0.56 0.51 0.52 0.47 0.46 0.50 0.50 0.51 0.51 0.55 0.59 0.61 0.60 0.60 0.60 0.61 0.60 0.61 0.64 0.67 0.71 0.82 0.92 0.99 1.07 1.12 1.15 1.25 1.38 1.41 1.52 1.48 1.48 1.40 1.34 1.37 1.38 1.34 1.27 1.20 1.00 0.87 0.72 0.64 0.56 0.58 0.66 0.66 0.73 0.67 0.68 0.70 0.70 0.70 0.68 0.64 0.56 0.60 0.65 0.66 0.64 0.61 0.62 0.64 0.68 0.64 0.63
0.55 0.59 0.62 0.61 0.62 0.63 0.64 0.61 0.60 0.57 0.55 0.53 0.49 0.51 0.48 0.45 0.41 0.40 0.37 0.38 0.37 0.38 0.36 0.37 0.43 0.47 0.49 0.55 0.58 0.61 0.61 0.61 0.60 0.59 0.60 0.61 0.61 0.63 0.64 0.70 0.79 0.90 0.95 0.98 1.01 1.08 1.14 1.22 1.30 1.36 1.47 1.47 1.41 1.37 1.33 1.37 1.35 1.25 1.15 1.09 0.95 0.76 0.71 0.68 0.69 0.58 0.80 0.80 0.76 0.77 0.73 0.71 0.69 0.60 0.58 0.60 0.60 0.57 0.58 0.57 0.62 0.63 0.64 0.63 0.61
0.56 0.62 0.63 0.63 0.63 0.65 0.64 0.61 0.59 0.57 0.55 0.52 0.50 0.50 0.51 0.47 0.44 0.41 0.41 0.39 0.37 0.40 0.43 0.44 0.44 0.48 0.52 0.53 0.55 0.59 0.61 0.60 0.60 0.60 0.60 0.60 0.60 0.61 0.62 0.63 0.66 0.76 0.89 0.92 0.91 0.95 1.04 1.14 1.24 1.38 1.46 1.49 1.45 1.34 1.35 1.35 1.39 1.31 1.18 1.16 1.14 1.04 1.00 0.84 0.68 0.70 0.61 0.75 0.78 0.76 0.75 0.77 0.74 0.63 0.60 0.61 0.64 0.59 0.57 0.58 0.59 0.58 0.56 0.57 0.54
0.59 0.59 0.60 0.62 0.62 0.64 0.63 0.61 0.60 0.58 0.57 0.53 0.50 0.49 0.49 0.47 0.46 0.45 0.43 0.43 0.40 0.39 0.44 0.45 0.46 0.48 0.48 0.51 0.54 0.56 0.58 0.60 0.60 0.61 0.61 0.61 0.60 0.60 0.62 0.61 0.59 0.62 0.68 0.77 0.85 0.88 0.94 1.07 1.27 1.39 1.51 1.56 1.47 1.37 1.37 1.42 1.35 1.25 1.22 1.17 1.18 1.17 1.13 0.99 0.94 0.81 0.69 0.63 0.69 0.80 0.80 0.78 0.76 0.68 0.64 0.66 0.67 0.64 0.61 0.58 0.54 0.55 0.52 0.52 0.51
0.57 0.56 0.58 0.61 0.64 0.65 0.64 0.63 0.61 0.59 0.58 0.54 0.52 0.51 0.49 0.48 0.46 0.45 0.43 0.45 0.45 0.44 0.46 0.48 0.45 0.47 0.46 0.48 0.50 0.54 0.55 0.58 0.60 0.61 0.61 0.62 0.62 0.61 0.61 0.61 0.61 0.60 0.63 0.64 0.72 0.84 0.86 0.92 1.05 1.21 1.30 1.45 1.48 1.44 1.41 1.40 1.46 1.34 1.25 1.20 1.22 1.19 1.15 1.10 1.01 0.92 0.76 0.66 0.65 0.70 0.69 0.74 0.70 0.68 0.69 0.70 0.70 0.71 0.71 0.67 0.59 0.59 0.54 0.54 0.51
0.57 0.59 0.61 0.63 0.64 0.64 0.62 0.61 0.60 0.59 0.59 0.55 0.53 0.51 0.51 0.50 0.47 0.45 0.43 0.45 0.46 0.46 0.46 0.44 0.45 0.45 0.44 0.47 0.49 0.49 0.53 0.55 0.57 0.60 0.61 0.62 0.63 0.64 0.62 0.61 0.61 0.61 0.62 0.62 0.66 0.73 0.83 0.87 0.89 0.95 1.05 1.15 1.36 1.42 1.36 1.37 1.43 1.44 1.40 1.29 1.22 1.22 1.19 1.12 1.04 0.95 0.86 0.80 0.67 0.67 0.74 0.61 0.51 0.57 0.68 0.68 0.69 0.73 0.75 0.74 0.66 0.63 0.62 0.61 0.60
0.57 0.58 0.60 0.61 0.63 0.63 0.62 0.60 0.61 0.60 0.59 0.55 0.53 0.52 0.52 0.50 0.48 0.46 0.44 0.44 0.46 0.46 0.45 0.45 0.44 0.43 0.40 0.41 0.45 0.48 0.50 0.51 0.54 0.57 0.59 0.61 0.62 0.63 0.62 0.62 0.62 0.62 0.61 0.61 0.63 0.66 0.74 0.82 0.85 0.87 0.90 0.94 1.02 1.20 1.25 1.32 1.38 1.41 1.40 1.36 1.30 1.26 1.19 1.11 1.08 1.04 0.93 0.83 0.76 0.72 0.74 0.69 0.62 0.57 0.63 0.69 0.70 0.71 0.77 0.78 0.72 0.68 0.72 0.72 0.69
Wind_Speed
10 9 9 10 10 9 9 9 8 7 6 6 5 5 5 4 5 6 6 7 7 8 7 7 8 8 8 7 6 6 6 6 6 5 5 5 6 6 7 7 7 7 7 8 9 10 11 12 12 12 12 11 12 13 13 13 14 15 16 18 19 19 20 20 20 21 21 21 21 20 20 20 20 20 20 20 19 18 18 18 18 18 18 18 17
10 10 9 10 9 9 9 9 8 7 6 5 5 5 5 5 5 6 7 7 8 8 8 8 8 8 8 8 7 7 7 7 6 6 5 5 6 6 7 8 8 8 7 8 9 10 11 12 12 12 12 11 13 14 14 14 14 15 17 18 19 19 20 21 20 21 21 21 20 20 20 19 19 19 19 19 18 18 17 17 17 17 17 17 17
10 10 10 10 10 10 10 9 8 8 7 5 5 5 5 5 5 6 7 7 7 8 8 8 9 9 9 8 8 7 7 7 7 6 6 6 6 7 7 8 8 8 8 8 9 11 11 12 12 12 11 12 13 13 14 14 15 16 17 18 19 19 20 21 21 21 21 21 20 19 19 19 18 18 18 18 17 17 17 17 17 17 17 16 16
9 9 9 10 11 11 10 9 9 8 7 6 5 5 4 5 5 6 6 7 7 8 9 9 9 9 9 8 8 8 8 7 7 7 6 6 7 7 8 8 8 8 8 8 10 11 11 11 11 12 11 12 13 13 14 14 15 16 17 18 19 20 20 21 21 21 21 20 19 18 18 17 17 17 17 17 17 17 16 16 16 16 16 16 16
9 9 10 10 11 11 11 10 9 9 8 7 6 5 5 5 5 6 7 7 8 8 9 9 9 9 8 9 8 8 8 8 7 7 7 7 7 7 7 8 8 9 9 9 10 11 11 11 11 11 11 12 13 14 14 15 16 17 17 18 19 20 20 21 21 20 20 19 18 17 16 16 16 16 17 16 16 16 16 16 15 15 15 15 15
9 9 10 10 10 12 11 11 10 9 9 8 6 6 5 5 6 6 7 7 8 8 9 9 9 8 7 8 8 8 8 8 7 7 7 7 7 7 7 8 8 8 9 10 10 11 11 11 10 10 11 12 14 15 15 16 17 17 18 18 19 20 20 21 21 20 20 18 17 16 16 15 15 16 16 16 16 15 15 15 14 14 14 14 14
9 9 10 10 10 12 12 11 10 9 9 8 7 6 5 5 6 7 8 8 8 8 9 9 10 9 7 8 8 8 8 8 8 8 8 8 8 7 7 7 8 8 9 10 11 11 11 11 10 10 11 12 15 16 16 16 17 18 18 19 19 19 20 20 21 20 20 17 16 16 15 15 15 15 16 15 15 15 14 14 13 13 13 13 13
8 9 9 10 10 11 12 11 10 10 9 9 8 7 7 6 6 7 8 9 9 9 9 9 10 10 9 8 8 9 8 8 8 9 8 8 8 7 7 7 7 8 9 11 11 11 11 11 10 10 11 13 15 17 16 17 17 18 18 19 19 19 20 20 21 20 19 17 16 16 15 15 15 15 15 15 14 14 13 13 13 12 12 12 12
8 8 8 9 10 11 12 11 11 11 10 10 9 8 8 7 6 7 7 8 9 10 10 10 10 10 10 9 8 9 8 9 9 9 9 8 8 7 7 7 7 8 9 11 11 12 11 11 10 10 11 14 16 17 17 17 18 18 19 19 19 19 20 20 20 20 18 17 16 16 15 14 14 15 15 14 14 13 13 12 12 11 11 11 11
8 8 8 8 9 11 11 12 12 12 11 10 10 9 9 8 7 7 7 8 9 10 11 11 10 10 10 9 8 9 9 9 9 9 9 9 8 7 7 7 7 8 9 11 12 12 11 11 10 11 12 14 17 17 17 17 18 18 19 19 19 19 19 20 20 19 18 17 16 16 15 14 14 15 15 14 13 13 12 11 11 10 10 10 10
8 8 8 8 9 10 11 11 11 12 11 10 10 10 9 9 8 8 8 9 9 10 11 12 12 11 11 10 8 8 9 9 9 9 9 9 8 8 8 8 8 8 10 11 12 12 11 11 11 11 12 15 17 18 17 17 17 18 18 19 19 19 19 20 19 19 18 17 16 17 16 14 15 15 14 14 13 12 11 11 11 10 9 9 9
7 7 8 8 8 10 11 11 11 12 12 11 11 11 10 10 9 9 8 9 10 10 11 12 12 12 12 11 9 9 9 10 10 10 10 9 8 8 8 8 8 9 10 12 12 12 12 11 11 12 13 15 17 18 17 17 17 17 18 19 19 19 19 19 19 18 18 17 17 17 15 14 15 15 14 13 13 12 11 11 10 9 9 8 8
6 7 7 8 8 10 11 11 11 12 12 11 11 11 11 11 10 9 8 9 10 10 11 12 13 12 13 13 11 10 10 10 10 10 10 10 9 8 8 8 9 10 11 12 13 13 12 12 12 12 14 16 17 18 17 17 17 17 17 18 18 18 19 19 18 18 18 18 17 16 15 14 15 15 14 13 12 12 11 10 10 9 8 7 7
7 7 7 8 8 10 11 12 12 11 11 11 12 11 11 11 11 10 8 9 9 10 11 12 13 13 13 13 13 11 10 10 10 11 11 10 10 9 9 9 9 10 11 12 13 14 13 13 13 13 14 17 18 18 18 17 17 16 17 18 18 18 18 18 18 18 18 18 17 16 15 15 15 15 14 13 12 11 11 10 9 8 7 7 6
7 7 7 8 8 9 11 12 13 13 13 12 12 12 12 11 12 11 9 9 9 10 11 12 13 13 13 13 13 12 11 10 10 11 11 11 11 10 9 9 10 11 11 13 14 14 14 13 13 13 15 17 17 18 17 17 16 16 16 17 17 17 18 18 18 18 18 17 16 16 15 15 15 14 13 12 12 11 11 10 9 8 7 6 5
7 7 7 8 8 9 10 11 13 14 14 14 13 13 13 12 12 13 11 10 10 10 11 12 13 14 14 13 13 12 11 11 10 11 11 11 11 10 10 10 11 12 12 13 14 14 14 14 14 14 16 17 17 18 17 17 16 16 16 17 17 17 17 17 17 18 17 17 16 15 15 15 15 14 13 12 12 11 10 10 9 8 7 6 5
7 8 8 8 9 9 9 10 12 14 14 14 14 14 14 13 13 13 13 12 12 11 11 12 13 14 14 14 14 13 11 11 11 11 11 12 11 11 10 11 11 12 12 13 14 15 15 15 14 15 16 17 17 17 18 17 16 16 16 16 16 16 17 17 17 17 17 17 16 15 15 15 15 14 13 12 12 11 10 9 8 7 6 5 5
8 8 9 9 9 10 10 10 11 12 13 14 14 14 14 14 13 14 13 13 13 12 12 12 13 14 15 15 14 14 12 11 11 11 12 12 12 11 11 11 12 12 12 13 14 15 15 15 15 16 17 17 17 17 18 17 16 16 16 16 16 16 16 16 16 17 17 17 16 15 15 15 15 14 13 12 12 11 10 9 8 7 6 5 4
9 9 10 10 10 10 10 10 11 12 12 13 14 15 15 14 14 14 14 14 13 13 13 13 13 14 15 15 15 15 13 12 12 12 12 13 13 12 11 11 12 13 13 13 14 15 16 16 16 17 17 18 17 17 17 17 17 16 16 16 16 16 16 16 15 16 17 17 16 15 15 15 14 13 13 12 11 11 10 9 8 7 6 5 4
10 9 10 10 10 10 10 10 11 11 12 13 14 15 15 14 14 14 14 14 14 13 13 13 14 14 15 16 16 15 14 13 12 12 13 13 13 13 12 11 12 13 13 13 14 15 16 16 16 17 17 17 17 17 17 17 17 17 16 16 16 16 16 15 15 16 16 16 16 15 15 15 14 13 13 12 11 11 10 9 8 7 6 5 4
10 9 10 10 10 10 10 11 11 11 12 12 13 14 14 14 14 14 14 14 14 13 14 14 14 14 15 16 16 16 15 13 12 12 13 14 14 14 13 12 12 13 14 14 14 15 16 17 17 18 17 17 17 17 17 17 17 17 16 16 16 16 15 15 15 15 15 16 16 15 15 15 14 14 13 12 11 11 10 9 8 7 6 5 4
10 10 10 10 10 10 10 10 11 11 11 11 11 12 13 14 14 14 14 14 14 14 14 14 15 15 15 16 16 16 16 14 13 13 13 14 14 14 14 13 13 13 14 14 15 16 17 17 18 18 18 18 17 17 17 17 17 17 17 17 16 16 15 15 15 15 15 15 15 15 15 15 15 14 13 13 12 11 11 10 9 8 6 5 4
11 11 11 10 10 11 11 11 11 11 11 10 10 10 12 13 13 13 13 13 14 14 14 14 16 15 15 16 17 17 16 15 14 14 13 14 15 15 15 15 14 14 14 15 15 16 17 18 18 18 18 18 17 17 17 17 18 18 17 17 16 16 15 15 15 15 15 15 15 15 15 15 15 14 14 13 12 12 11 10 9 8 7 6 5
11 11 11 11 10 11 11 11 11 11 11 11 10 10 12 13 13 13 13 13 13 14 14 14 17 16 15 16 16 17 17 16 15 15 14 14 15 16 15 15 15 14 15 15 15 16 17 18 19 18 18 18 18 17 18 18 18 18 18 17 16 16 16 16 15 15 15 15 15 15 15 15 15 15 14 13 13 12 11 10 9 8 7 6 5
12 12 11 11 10 11 11 11 11 11 11 11 11 11 11 13 13 13 13 13 13 14 14 14 17 17 16 16 16 17 17 17 16 15 15 15 16 16 16 16 15 15 15 15 16 16 17 18 19 19 19 19 19 18 18 18 19 19 18 18 17 17 16 16 16 15 15 16 16 16 16 15 15 15 14 14 13 12 12 11 10 9 8 7 6
11 11 11 11 10 11 11 11 11 11 11 11 11 11 11 12 13 13 13 13 13 14 14 14 17 18 16 16 16 17 17 17 16 16 15 15 16 17 17 17 16 16 16 16 16 17 18 18 19 19 19 19 19 19 19 19 19 19 19 19 18 18 17 17 16 16 16 16 16 17 17 16 16 15 15 14 14 13 12 11 10 9 8 8 7
11 11 11 11 11 11 11 11 11 11 11 11 11 11 11 11 13 13 13 13 14 13 13 14 16 18 17 16 16 17 17 17 17 17 16 16 16 17 18 18 17 17 16 16 17 18 18 18 19 20 19 20 20 20 20 20 20 20 20 20 19 19 18 17 17 17 16 16 17 17 17 17 17 16 16 15 15 14 13 12 11 10 9 8 8
11 11 11 11 11 11 11 11 11 11 12 11 11 11 11 11 12 13 13 14 14 14 14 15 16 17 18 18 17 17 18 18 18 18 17 17 17 18 19 18 18 17 17 17 17 18 18 18 18 19 20 20 20 21 21 21 21 21 21 21 20 20 19 18 18 17 17 16 17 17 17 17 17 16 16 16 16 15 14 13 12 11 10 10 9
11 11 11 11 11 11 11 11 11 12 12 12 12 12 12 11 11 12 12 13 15 15 15 16 16 17 18 19 19 18 18 18 19 19 19 18 18 19 19 19 19 18 17 17 17 18 18 18 18 19 20 20 20 21 21 22 22 22 22 21 21 21 21 20 19 18 18 17 17 18 18 17 17 17 16 16 16 16 15 14 13 12 11 11 10
11 11 11 11 11 11 11 11 11 12 12 12 12 12 12 12 12 12 12 12 14 14 15 16 17 17 18 19 20 20 20 19 19 19 20 19 19 20 20 20 20 19 18 18 18 18 18 18 18 18 19 20 21 21 22 22 23 23 23 22 22 22 22 21 20 19 19 18 18 18 18 18 18 17 17 17 17 16 16 15 14 13 13 12 11
12 12 11 11 11 11 11 11 11 11 12 12 13 13 13 13 13 13 13 12 13 13 15 16 17 17 18 19 20 21 21 21 20 20 20 20 20 20 21 21 21 20 20 19 19 19 18 19 19 19 20 20 21 21 22 22 23 23 24 23 23 23 22 22 22 21 20 20 19 19 18 18 18 18 18 18 17 17 16 16 15 14 14 13 12
12 12 12 12 12 11 11 11 11 11 12 12 13 13 13 14 14 14 14 14 14 14 14 15 16 18 19 19 20 21 21 22 22 21 21 21 21 21 22 22 22 22 21 20 19 19 19 19 19 20 20 20 21 22 22 22 23 24 24 24 24 23 23 23 23 22 22 21 20 20 19 19 19 19 19 19 18 18 17 17 16 15 15 14 13
13 12 12 12 12 12 11 11 11 12 12 12 13 13 13 14 15 15 16 16 16 15 15 16 16 17 19 19 20 21 21 22 22 22 21 22 22 22 23 23 23 23 22 21 21 20 20 20 19 19 20 21 21 22 22 23 23 24 25 25 25 25 24 24 24 23 23 22 21 21 20 19 19 20 20 20 19 19 18 18 17 16 16 15 14
13 13 13 13 13 12 12 12 11 12 12 12 13 13 13 14 14 15 16 17 17 17 17 17 17 18 18 19 19 21 21 22 22 23 23 23 23 23 24 24 24 24 23 23 22 22 21 21 20 20 20 21 21 22 23 23 24 24 25 26 26 26 25 25 25 24 24 23 23 22 21 20 20 20 20 20 20 20 19 18 18 17 16 16 15
13 13 13 13 13 12 12 12 12 11 11 12 12 12 13 13 14 15 16 17 18 18 18 18 18 19 19 19 20 20 21 22 23 23 24 24 24 25 25 25 25 25 24 24 24 23 23 22 22 21 21 21 21 22 23 23 24 24 25 26 26 26 26 26 26 25 25 24 24 23 22 21 20 20 20 20 20 21 20 19 19 18 17 17 16
14 13 13 12 12 12 12 12 12 12 12 12 12 12 13 13 14 14 15 16 18 19 19 19 19 20 20 20 21 21 21 22 23 24 24 25 25 25 26 26 26 26 25 25 25 24 24 24 24 23 22 21 22 22 23 23 24 25 25 26 27 27 27 27 27 26 26 25 25 24 23 22 22 21 20 20 20 21 21 21 20 19 18 18 17
14 13 12 12 12 12 11 11 12 12 12 12 12 12 13 13 13 14 15 16 17 18 19 20 21 21 21 21 22 23 23 23 23 24 25 25 25 25 27 28 28 28 27 26 26 26 25 24 25 25 24 23 22 23 23 24 24 25 26 26 27 28 28 28 28 27 27 26 26 25 24 24 23 22 21 21 20 20 21 22 22 21 20 19 18
14 14 13 13 13 12 12 12 12 12 12 12 12 13 13 13 13 14 15 16 17 18 19 20 21 22 22 22 22 23 24 25 25 25 25 26 26 26 26 28 29 30 29 28 28 28 27 26 26 26 26 25 24 24 24 24 25 25 26 27 27 28 28 29 29 29 28 27 27 26 25 25 24 23 22 22 21 21 21 22 22 22 21 20 19
15 14 14 13 13 13 13 13 13 13 12 12 12 13 13 14 14 14 15 16 17 18 19 20 21 22 22 23 24 24 25 26 26 26 26 26 27 27 26 27 28 29 31 31 30 30 30 29 28 27 27 27 26 25 25 24 25 26 26 27 27 28 28 29 30 29 29 29 28 27 26 26 25 25 24 23 23 22 22 22 22 22 22 22 21
16 15 14 14 14 14 14 14 13 13 13 13 13 13 13 14 15 15 16 16 17 18 19 20 21 22 22 23 24 25 25 26 27 27 27 28 28 28 28 28 28 28 30 31 33 33 32 31 31 30 29 29 28 27 26 25 25 26 26 27 27 28 29 30 30 30 30 30 29 29 28 27 27 26 26 25 24 23 23 23 22 22 22 22 22
17 16 15 15 14 14 14 14 14 14 14 14 14 13 13 14 15 15 16 17 18 19 19 20 21 22 22 23 23 24 25 26 27 28 28 28 28 28 29 29 30 30 30 30 32 34 35 34 32 32 32 31 30 29 28 27 26 26 27 27 28 28 29 30 30 31 31 31 31 30 29 29 28 27 27 27 26 25 25 24 24 23 22 22 22
18 17 16 16 15 15 15 15 14 14 14 14 14 14 14 14 15 15 16 17 18 19 20 21 21 22 22 23 23 24 25 26 27 28 28 29 29 29 29 29 30 32 32 32 31 32 34 35 34 33 33 33 32 30 30 29 28 28 27 27 28 28 29 30 31 31 31 31 31 31 31 30 29 29 28 28 28 27 26 26 25 25 24 23 22
19 18 17 17 16 16 16 15 15 15 15 15 15 15 15 15 16 16 16 17 18 19 20 21 22 22 23 23 24 25 25 26 27 28 29 30 30 30 30 30 30 30 32 33 32 31 32 33 35 35 34 34 33 32 32 31 29 29 29 28 28 28 30 31 31 31 31 31 31 31 31 31 31 31 30 29 29 29 28 27 27 27 26 25 24
19 18 18 17 17 16 16 15 15 15 15 15 15 16 16 16 17 17 17 17 18 19 20 20 21 22 22 23 24 25 26 27 27 28 29 30 31 31 31 31 31 31 31 32 33 33 32 32 35 37 36 35 35 34 34 33 32 30 30 29 28 29 29 30 31 32 32 32 32 32 32 32 32 32 31 30 30 29 29 29 28 28 28 27 26
19 18 18 18 17 17 17 16 16 16 16 16 16 16 16 16 17 17 17 17 18 18 19 20 21 22 22 23 24 25 26 27 28 28 29 30 31 32 32 32 32 32 32 32 33 34 35 34 35 37 39 37 35 35 35 35 35 33 32 30 29 29 29 29 30 31 32 33 32 32 32 32 32 32 31 31 31 30 30 30 30 29 29 29 28
19 19 18 18 18 18 17 17 17 16 16 16 16 16 16 16 16 16 17 17 18 18 19 20 21 22 22 23 24 25 26 27 28 29 30 30 31 32 33 33 34 34 33 33 34 34 35 36 36 37 39 39 36 36 36 36 36 36 35 33 31 29 28 29 29 29 31 32 32 33 33 32 32 32 31 31 31 31 31 31 31 30 30 30 30
20 19 18 19 19 19 18 18 17 17 17 17 16 16 16 17 17 17 17 17 18 19 19 20 21 22 23 23 24 25 26 27 28 29 30 31 31 32 33 34 34 35 35 35 35 35 35 36 36 36 38 40 39 37 37 37 36 36 36 35 34 32 30 29 29 29 29 31 32 33 33 33 33 32 31 31 31 30 30 30 30 30 30 30 30
20 19 19 19 19 19 19 19 19 18 18 18 17 17 17 17 17 17 18 18 18 19 20 20 21 22 23 24 24 25 26 27 27 28 29 30 31 32 33 34 34 35 35 36 36 36 37 36 37 37 38 40 41 39 38 38 37 36 37 36 35 34 33 32 31 30 29 29 31 32 33 33 33 32 31 31 30 30 30 29 29 29 29 29 29
20 19 20 20 20 20 20 20 20 20 20 19 19 19 18 18 18 18 18 18 19 19 20 21 22 22 23 24 25 25 26 27 28 28 29 30 31 32 33 34 35 35 36 36 36 37 37 38 38 39 39 40 41 40 39 40 38 36 37 37 36 36 35 34 33 32 31 30 29 30 32 33 32 32 32 31 30 30 29 29 29 28 28 28 28
20 20 20 20 20 21 21 21 21 21 21 21 20 20 20 20 20 19 19 19 20 20 21 21 22 23 23 24 25 26 27 27 28 29 30 30 31 32 33 33 35 36 37 37 38 37 38 38 39 39 40 41 41 41 41 41 41 39 38 38 37 36 36 35 35 34 34 33 31 30 31 32 32 33 32 32 31 30 29 29 28 28 27 27 27
20 20 20 21 21 21 22 22 22 22 22 22 22 21 21 21 21 21 21 21 21 21 21 22 22 23 24 25 25 26 27 28 28 29 30 31 31 32 33 34 34 35 37 38 39 39 38 38 39 40 41 41 42 42 42 42 43 43 42 40 39 38 37 36 36 35 35 34 33 31 31 32 32 32 33 32 32 31 30 29 28 28 27 27 27
Wind_Direction
261 256 246 239 241 237 236 239 241 243 246 251 249 247 242 235 229 224 216 212 212 211 206 202 200 197 196 196 190 182 176 174 170 170 171 167 164 159 157 156 150 149 150 149 149 148 145 143 142 138 133 130 132 134 134 134 133 132 133 136 137 137 137 136 136 135 134 131 127 125 123 121 120 120 119 118 116 113 111 108 105 102 99 97 94
258 256 250 240 237 237 238 235 236 239 242 247 246 246 244 238 229 225 219 213 211 210 208 203 199 200 200 198 194 186 179 176 173 173 174 171 168 162 160 161 157 155 155 154 152 150 148 145 144 140 136 132 135 138 137 137 137 135 136 138 138 139 139 138 138 137 136 132 128 126 124 122 122 121 121 119 117 114 111 108 105 103 101 98 95
257 257 254 244 236 237 239 234 233 236 239 242 245 244 242 238 227 223 220 214 211 210 209 203 198 201 202 200 196 189 184 180 176 177 178 171 168 165 162 163 162 161 158 157 156 153 150 148 148 145 140 137 140 142 141 141 140 137 138 141 140 141 141 140 140 139 137 133 130 128 125 124 123 123 123 121 118 115 111 109 107 105 102 98 95
255 253 252 247 239 235 237 236 235 236 236 238 245 242 236 235 226 218 215 211 208 208 207 201 197 202 204 202 197 191 188 184 181 181 181 174 169 166 164 164 165 163 160 159 158 156 153 152 152 149 144 144 145 146 146 145 143 140 141 143 143 143 143 143 142 141 139 136 132 130 128 127 125 125 125 122 119 116 113 111 109 106 102 98 95
253 249 249 249 241 235 234 236 236 237 236 237 243 241 238 235 227 218 212 207 205 207 206 200 196 200 204 204 200 195 192 189 187 185 184 179 173 169 166 167 167 166 163 161 160 158 156 155 156 153 148 149 151 150 150 149 146 143 144 145 145 145 144 144 145 144 142 139 136 133 131 130 129 128 127 125 122 119 116 113 110 106 103 100 96
252 249 249 249 242 235 234 234 234 238 237 237 237 234 238 236 226 218 213 206 205 209 208 204 199 196 201 205 202 197 195 193 189 187 188 182 177 173 170 170 170 171 167 165 163 160 158 157 159 158 153 153 155 155 153 152 149 147 147 148 148 147 146 146 147 147 144 141 139 137 135 134 133 131 130 128 125 122 118 115 112 108 104 101 96
253 251 250 248 239 233 233 232 231 238 238 234 231 229 236 236 227 217 215 212 208 209 209 207 205 203 201 202 199 196 195 194 190 187 188 182 178 175 173 173 173 174 170 168 167 164 160 160 161 162 158 157 158 157 156 155 152 150 150 150 150 149 148 149 149 150 148 145 143 141 138 137 137 135 134 131 129 125 121 118 114 110 106 101 96
256 254 251 245 236 231 231 231 230 234 234 230 228 232 235 236 232 221 218 219 214 209 210 209 209 207 201 198 195 194 193 195 192 189 189 184 179 177 176 175 174 174 172 170 169 167 163 163 163 163 161 159 160 159 158 157 155 153 153 153 153 151 151 151 152 153 152 149 146 144 142 141 140 139 137 135 132 129 124 121 117 112 107 102 97
258 257 252 243 236 232 231 231 229 230 231 229 230 234 234 234 231 226 223 221 218 213 213 212 211 208 203 199 194 194 194 194 193 192 192 188 183 181 180 179 176 174 172 171 170 167 165 164 164 164 162 160 161 161 160 158 157 156 156 156 155 154 153 153 154 155 153 150 148 147 145 144 144 143 141 138 136 133 129 124 120 115 109 104 98
259 258 253 245 238 233 233 234 231 230 230 229 231 231 228 229 230 232 230 224 220 218 218 217 214 210 203 197 193 195 196 195 195 194 192 189 187 186 184 182 178 174 173 172 170 168 167 166 166 165 162 162 162 162 161 159 158 159 159 159 158 157 156 156 157 157 155 152 152 151 149 147 148 146 144 142 140 137 134 128 123 118 112 107 100
259 256 252 246 238 234 234 234 231 230 230 229 230 229 226 229 235 238 236 229 225 221 221 220 217 211 205 201 199 198 198 199 198 196 193 192 192 190 186 183 180 175 174 173 171 170 169 168 169 167 164 164 163 163 163 160 160 161 161 161 160 159 159 159 159 158 157 155 155 153 151 151 150 148 146 145 143 141 137 133 128 122 116 109 102
260 254 250 245 239 235 234 235 235 231 230 231 232 232 231 234 237 236 236 235 231 226 223 221 218 215 211 208 209 205 201 201 200 200 197 196 197 193 188 185 182 177 175 174 174 172 171 171 171 169 166 165 164 164 163 162 161 162 163 163 163 163 163 163 161 161 160 159 158 155 154 155 153 151 150 148 147 144 141 138 133 127 121 113 105
260 254 250 246 240 235 233 237 239 232 230 232 234 235 236 239 236 232 234 236 234 229 225 221 219 217 213 211 212 210 203 200 201 202 200 199 199 197 193 189 186 180 176 175 175 174 173 173 171 170 167 164 163 164 164 162 162 163 164 164 165 166 166 166 164 163 163 162 161 160 159 159 157 155 154 151 151 149 145 142 138 133 126 118 109
260 256 251 247 241 236 235 238 238 233 232 235 236 235 236 240 234 228 231 234 234 230 225 220 218 218 215 211 211 210 202 200 202 203 202 201 200 199 198 191 186 182 178 177 177 177 175 175 173 170 168 165 163 164 164 163 163 165 166 166 167 168 169 168 167 166 167 167 165 165 165 163 161 159 157 155 154 152 148 145 142 137 131 125 114
260 254 251 247 242 238 238 240 238 235 238 239 238 237 238 242 235 228 231 234 233 231 226 220 218 218 215 212 210 209 204 203 204 204 204 203 201 201 199 192 186 182 179 178 179 179 178 177 175 171 169 166 164 166 166 165 165 166 168 169 169 170 172 171 170 170 171 171 170 169 168 166 165 163 161 158 157 155 152 149 146 142 137 131 121
259 252 251 250 246 243 241 242 240 238 240 242 241 241 243 245 238 232 235 234 231 230 226 222 219 216 214 213 211 210 208 205 204 204 204 203 200 199 198 193 186 183 180 180 180 181 182 180 178 174 170 167 167 169 168 166 167 168 169 171 172 173 174 174 173 174 174 174 173 172 171 170 168 168 165 162 161 159 156 154 151 147 143 137 127
258 253 252 251 249 246 244 243 242 241 241 243 243 243 244 244 240 237 237 234 231 229 228 224 219 216 214 214 212 210 208 205 203 203 202 200 198 196 196 193 186 184 181 181 182 183 185 184 181 177 172 169 169 172 172 169 169 170 170 173 175 175 176 175 175 177 177 177 176 175 175 174 172 171 168 166 165 163 161 158 156 152 150 144 134
260 256 254 252 250 247 246 245 244 243 242 244 244 243 243 243 241 238 236 233 231 230 230 226 221 217 214 213 212 211 208 205 204 203 202 198 197 194 193 193 189 185 183 182 183 184 186 185 183 180 175 172 172 174 175 174 172 172 173 176 177 177 178 178 178 179 180 179 178 178 177 177 176 175 173 171 170 168 166 162 160 158 156 151 141
261 258 256 255 253 251 249 249 246 244 244 245 245 244 244 242 240 237 235 232 230 231 230 225 220 217 214 213 213 212 209 208 206 204 203 198 197 196 193 193 190 187 185 184 184 185 186 186 185 182 178 176 175 177 178 177 176 175 175 178 180 180 180 181 181 182 183 183 182 180 179 179 179 179 177 177 175 173 171 168 166 164 162 158 151
261 258 255 255 255 254 252 251 250 248 247 249 249 246 243 241 238 235 234 230 228 230 229 223 218 217 215 213 213 210 208 209 207 204 202 199 198 198 195 194 192 189 187 186 185 185 185 186 185 184 181 179 178 179 180 180 178 178 178 179 181 183 182 183 183 183 184 185 184 183 182 181 182 182 181 181 180 178 176 174 173 171 169 166 162
260 258 256 254 254 253 252 252 252 251 250 251 252 248 241 239 237 233 232 229 227 227 226 222 218 217 215 213 212 209 206 208 206 202 201 201 200 199 197 196 194 192 190 188 187 185 185 185 184 184 184 182 181 181 182 183 181 180 179 180 182 184 185 185 185 184 185 186 186 185 185 185 185 185 184 185 184 182 181 180 180 179 176 174 173
259 259 259 258 255 252 252 251 253 254 253 253 253 249 240 237 235 231 229 226 225 226 225 223 218 217 214 212 212 209 207 209 207 204 203 204 203 200 199 198 197 195 191 191 190 187 187 186 184 185 186 185 185 185 185 186 185 183 182 182 184 186 188 188 186 186 187 187 187 187 187 188 189 188 188 188 188 187 186 186 186 186 184 184 186
258 259 260 260 258 255 253 252 253 254 255 254 253 249 239 235 235 231 227 224 225 226 226 225 220 217 214 212 213 211 210 211 209 208 206 205 205 203 201 200 199 197 193 192 193 190 188 188 188 188 189 190 190 190 189 189 190 188 186 186 187 189 191 190 189 189 189 189 190 189 189 191 192 191 191 191 192 191 191 192 192 193 193 195 200
257 257 257 259 258 257 256 255 254 254 255 253 252 249 240 236 234 230 226 225 227 227 229 229 220 216 214 213 214 213 213 213 211 209 208 207 206 205 202 200 200 199 196 195 196 194 192 191 193 193 194 195 195 194 193 193 193 192 191 191 192 193 194 193 192 192 191 192 192 191 192 194 194 194 194 194 195 195 195 196 198 200 203 207 212
257 256 257 257 257 257 257 257 256 254 254 252 250 249 243 237 233 230 227 228 230 229 233 230 217 214 215 214 215 214 214 214 211 210 211 209 207 206 203 200 201 202 200 199 199 198 197 196 197 198 199 199 198 198 197 197 196 196 196 195 196 197 197 196 196 195 195 195 193 193 195 196 197 196 196 197 198 199 199 200 204 207 211 216 220
257 257 257 258 258 258 257 257 256 254 253 252 249 248 244 239 234 231 229 229 229 229 232 226 215 213 215 216 216 215 216 215 213 212 211 210 208 206 204 202 202 204 204 203 202 201 201 200 200 201 203 202 202 201 201 201 200 200 200 200 200 199 200 200 200 199 199 199 197 196 197 198 199 199 200 201 201 202 204 206 209 213 217 221 225
257 257 259 259 259 259 258 257 256 254 252 250 248 247 245 240 236 233 231 230 229 228 228 224 217 215 216 217 217 217 217 216 215 214 212 211 210 206 204 204 204 205 207 206 205 204 203 203 203 204 206 206 206 205 205 205 204 204 204 203 203 202 203 203 204 203 203 203 201 200 201 202 202 203 203 205 206 206 209 211 214 217 222 225 229
257 258 259 260 260 260 259 257 256 254 251 249 247 246 245 243 240 236 234 232 229 227 227 225 222 220 219 220 219 218 219 217 217 217 213 212 211 207 205 206 205 207 210 210 208 207 206 207 206 206 209 209 209 209 208 208 208 208 207 207 206 206 206 206 207 207 207 207 206 206 206 206 207 208 209 209 211 211 213 216 218 221 225 229 232
258 259 260 260 260 259 258 257 255 253 251 249 246 245 245 244 242 240 238 234 231 229 228 227 226 225 224 224 222 220 219 219 217 217 216 213 211 208 207 208 207 209 213 212 212 211 210 210 209 209 211 212 213 212 211 210 210 210 210 210 210 209 209 209 209 210 210 210 211 211 211 211 212 213 214 215 215 215 217 219 221 224 228 231 235
257 259 261 260 260 259 258 256 255 254 252 250 248 245 245 244 243 242 241 238 235 233 231 230 229 229 227 226 225 223 222 221 220 219 217 216 213 211 210 211 211 211 214 214 214 213 212 213 213 213 213 215 216 214 213 213 213 213 213 213 212 212 212 212 212 212 212 213 214 214 215 216 216 216 218 219 218 218 219 221 223 226 230 233 237
258 259 261 261 259 258 257 256 255 255 253 251 249 248 246 246 245 244 243 242 241 238 236 235 233 232 230 228 227 226 225 224 224 221 219 218 217 215 214 214 214 214 215 215 215 215 215 215 215 216 216 217 218 217 216 215 216 215 215 215 214 214 214 214 214 214 215 215 216 217 218 219 219 219 220 221 220 220 221 223 225 228 231 235 238
259 260 261 260 260 259 258 257 256 255 254 252 251 250 247 247 246 246 245 245 245 242 241 239 237 236 233 231 229 228 227 227 227 225 223 222 220 219 218 217 216 216 217 217 217 218 219 218 218 219 218 219 219 219 218 217 218 217 217 217 216 216 216 216 216 216 216 217 218 219 220 221 221 222 223 223 222 223 224 225 227 229 232 235 238
260 261 259 259 260 260 259 258 257 255 254 254 253 252 250 249 248 247 246 246 246 245 243 241 240 238 236 235 232 231 230 229 230 229 226 226 224 223 222 221 220 219 219 219 219 220 221 222 222 222 221 222 222 222 221 220 220 220 219 218 217 217 217 218 218 218 218 218 219 220 221 223 223 224 225 225 224 225 226 226 228 230 233 236 238
259 260 258 258 259 258 258 258 257 257 256 255 254 254 253 252 250 249 249 247 246 245 245 244 242 240 239 238 236 233 232 232 232 231 229 228 227 226 225 224 223 221 221 221 221 221 222 224 225 224 224 225 225 225 224 223 221 221 221 220 219 218 219 219 219 220 220 220 221 222 223 224 225 226 226 226 226 227 227 227 229 231 234 236 238
258 258 258 258 257 256 257 257 257 258 258 258 257 256 256 255 253 252 252 250 248 247 246 246 244 241 239 239 239 237 235 235 234 233 231 230 230 229 227 227 226 224 223 223 223 223 224 226 227 226 226 227 227 227 227 225 223 222 222 222 221 220 220 221 221 221 221 222 222 223 224 225 226 227 227 227 228 228 228 228 229 231 234 237 239
255 255 256 257 256 254 254 255 255 256 257 259 259 258 258 257 257 256 254 253 251 250 248 248 246 244 242 240 239 239 238 238 237 235 234 233 233 232 231 230 229 227 227 226 225 225 225 226 228 227 227 229 229 227 228 227 225 224 223 223 223 222 222 222 223 224 224 224 224 225 226 227 228 228 229 229 229 229 229 229 230 232 235 237 239
252 252 253 254 254 252 253 253 254 255 257 259 260 260 260 259 259 259 258 255 253 252 251 249 248 246 245 243 241 240 240 239 239 238 236 235 235 235 234 232 231 230 230 229 228 227 226 227 228 229 230 230 231 229 228 228 227 225 224 224 224 224 224 224 224 225 226 226 226 227 228 229 230 230 231 230 231 231 230 231 232 233 235 238 239
249 249 250 251 252 251 252 254 255 257 258 260 262 262 262 262 261 262 261 258 255 254 252 251 249 247 247 246 245 243 242 241 241 240 239 238 237 237 235 234 233 232 232 231 231 231 230 229 229 229 230 231 232 231 230 229 228 226 225 225 225 225 226 226 226 227 228 228 229 229 230 231 231 232 232 232 232 232 232 233 233 234 236 238 240
247 248 248 249 249 249 251 253 256 258 260 261 263 264 265 265 265 265 264 261 258 255 254 252 250 248 247 247 247 245 244 243 242 241 240 240 239 238 237 236 235 234 234 233 233 234 233 232 231 230 230 231 232 232 232 230 229 227 226 226 226 226 227 227 227 228 229 230 230 231 231 232 232 233 233 233 234 234 234 235 235 236 238 239 241
246 246 246 247 247 248 249 251 254 257 259 261 263 265 267 267 268 268 268 266 261 257 254 253 251 250 248 248 247 246 245 245 244 243 242 241 241 240 240 239 238 237 236 235 235 235 234 233 233 232 231 231 231 232 233 231 230 229 228 227 227 227 228 229 229 229 230 231 231 232 232 233 233 233 234 234 234 235 236 236 236 239 240 241 243
244 245 245 246 247 248 249 250 253 257 259 260 262 265 268 270 271 272 272 270 266 260 255 253 253 251 250 249 248 247 246 245 245 245 243 242 242 242 242 241 241 239 238 238 238 237 235 234 234 233 232 232 231 231 231 230 229 229 229 229 228 229 229 229 230 231 232 232 232 233 233 233 234 234 235 235 236 236 237 237 238 239 241 243 245
244 244 245 247 248 250 251 252 254 257 259 260 261 263 267 270 272 273 275 273 268 264 259 256 254 253 252 250 248 248 248 246 246 245 245 244 243 243 243 243 242 241 239 239 239 239 237 234 233 234 233 233 232 230 230 229 229 229 228 229 229 230 231 231 231 232 233 233 233 233 233 234 234 234 235 236 237 238 238 238 239 240 241 243 246
244 244 246 248 249 251 252 254 256 258 261 262 262 264 266 270 272 273 275 275 271 267 263 259 257 254 252 251 250 249 249 248 247 246 246 246 245 245 244 244 243 243 241 240 239 239 238 235 233 234 234 234 232 231 230 229 230 230 228 229 230 231 232 232 232 233 233 233 234 234 234 234 234 235 236 237 238 239 239 240 240 241 242 243 245
244 245 246 248 250 251 252 254 257 260 262 264 264 265 267 269 271 272 275 276 274 270 265 262 260 258 255 253 252 251 250 249 248 248 247 246 247 247 246 245 245 244 243 241 240 239 239 237 235 234 233 233 233 233 231 230 230 230 229 230 231 231 233 232 232 233 232 233 233 233 235 235 235 236 237 238 239 239 240 241 241 242 243 244 245
243 245 247 248 250 251 253 255 259 261 264 265 266 267 268 269 271 272 274 276 276 273 269 266 264 262 259 256 255 253 252 251 250 249 248 247 247 247 247 246 246 245 244 243 242 242 241 240 238 236 233 233 234 233 232 230 230 230 230 231 231 231 234 233 232 233 233 232 233 233 234 235 236 236 237 238 238 239 241 241 242 243 243 245 246
243 246 247 248 250 252 254 257 260 262 264 266 267 269 269 271 273 273 275 277 277 275 273 270 267 265 263 260 258 256 254 252 252 251 250 249 248 247 247 247 246 246 245 244 244 243 242 241 240 237 233 232 233 232 232 231 231 230 231 232 233 234 235 234 233 234 234 233 234 234 234 234 235 236 237 238 239 240 241 241 242 243 243 245 246
243 246 248 249 250 252 255 257 260 263 265 266 268 269 271 272 274 275 275 277 277 276 274 272 269 266 264 263 261 259 257 254 253 252 251 251 250 249 248 247 247 246 246 245 245 244 243 242 241 239 235 232 233 233 232 232 232 231 230 231 234 235 236 235 234 235 236 235 235 235 235 235 235 235 237 238 239 240 240 241 241 242 243 244 245
244 246 249 250 252 253 256 258 260 263 264 266 267 269 271 273 275 275 276 277 278 277 275 274 272 268 266 264 263 261 260 258 255 253 252 252 251 250 249 248 247 247 246 246 245 244 243 243 242 240 238 234 234 234 232 232 233 232 231 231 232 234 235 236 235 235 237 237 237 236 236 235 235 236 236 237 238 238 239 240 241 241 243 243 244
245 247 249 252 253 255 256 258 260 262 264 265 267 269 271 273 275 276 277 277 278 279 277 275 274 271 268 266 264 262 261 259 258 256 255 253 252 251 250 249 248 247 247 246 246 245 244 243 242 241 240 238 237 236 232 232 234 233 232 231 231 233 235 236 236 235 237 238 238 237 236 234 235 236 236 237 237 237 238 239 240 240 241 242 242
247 249 251 253 255 256 257 259 260 263 264 265 267 269 271 273 275 276 277 277 278 279 278 277 275 273 271 268 266 264 262 260 259 258 257 255 254 252 251 250 249 248 247 246 245 245 245 244 243 242 241 240 240 238 235 234 234 234 233 232 231 232 233 235 235 235 237 238 239 239 235 234 235 236 235 235 236 236 237 238 238 239 240 240 240
249 250 253 255 256 257 259 260 261 263 265 266 267 269 271 273 274 276 277 277 277 277 278 277 276 275 273 271 268 265 263 262 260 259 258 257 255 254 253 251 250 249 248 247 246 245 245 245 244 243 242 241 241 240 238 237 236 235 234 233 233 233 234 234 234 235 236 237 238 239 237 235 235 235 235 234 235 236 236 237 237 238 238 238 238